Location: Esterri de Aneo
(42.6284°N, 1.1223°E)
Time: 11:52:11
(UTC+00:00)

Cosmos 1933 - Visible Passes

Search period start: 15 March 2026 00:00
Search period end: 25 March 2026 00:00
Orbit: 509 x 515 km, 82.5° (Epoch: 14 March)

Date Brightness Start Highest point End Pass type
(mag) Time Alt. Az. Time Alt. Az. Time Alt. Az.
15 Mar 4.3 04:48:51 10° SSE 04:52:31 47° E 04:56:12 10° NNE visible
16 Mar 4.8 04:32:45 10° SSE 04:36:17 37° E 04:39:49 10° NNE visible
17 Mar 5.2 04:16:42 10° SSE 04:20:03 29° E 04:23:24 10° NNE visible
18 Mar 5.6 04:00:45 10° SE 04:03:48 23° E 04:06:54 10° NE visible
19 Mar 5.9 03:44:51 10° SE 03:47:34 19° E 03:50:19 10° NE visible
19 Mar 4.1 05:19:41 10° SW 05:22:59 28° WNW 05:26:19 10° NNW visible
20 Mar 6.2 03:29:05 10° ESE 03:31:20 15° E 03:33:36 10° NE visible
20 Mar 3.8 05:03:08 10° SW 05:06:39 35° WNW 05:10:10 10° N visible
21 Mar 6.3 03:13:34 10° ESE 03:15:06 12° E 03:16:39 10° ENE visible
21 Mar 3.5 04:47:08 13° SSW 04:50:17 44° WNW 04:53:58 10° N visible
22 Mar 3.2 04:31:40 22° SSW 04:33:55 57° W 04:37:42 10° N visible
23 Mar 3.0 04:16:05 35° SSW 04:17:35 74° W 04:21:24 10° N visible
24 Mar 3.1 04:00:23 53° S 04:01:14 86° E 04:05:03 10° N visible
